When you browse on this site, cookies collect data to enhance your experience and personalize the content and advertising you see.
Visit our Privacy Policy to learn more. By continuing to use the site, you agree to this use of cookies and data.
  • In Latvia
  • List of Countries
  • For 7 days
  • Water Temperature
  • Satellite Maps
  • Weather Map
  • Weather Widgets
  • user-avatar
    Login

    Hourly Weather Bejrut

    Today, 19 June, Wednesday

    Time Temperature Precipitation Wind Pressure Humidity
    00:00 +25°C° 0 mm 3 mps 754 mmHg 72%
    01:00 +25°C° 0 mm 3 mps 753 mmHg 70%
    02:00 +25°C° 0 mm 3 mps 753 mmHg 65%
    03:00 +24°C° 0 mm 3 mps 753 mmHg 65%
    04:00 +24°C° 0 mm 3 mps 753 mmHg 66%
    05:00 +24°C° 0 mm 3 mps 753 mmHg 66%
    06:00 +26°C° 0 mm 4 mps 753 mmHg 65%
    07:00 +27°C° 0 mm 4 mps 753 mmHg 63%
    08:00 +28°C° 0 mm 4 mps 753 mmHg 61%
    09:00 +29°C° 0 mm 4 mps 753 mmHg 62%
    10:00 +29°C° 0 mm 5 mps 753 mmHg 62%
    11:00 +30°C° 0 mm 5 mps 754 mmHg 62%
    12:00 +30°C° 0 mm 5 mps 753 mmHg 63%
    13:00 +30°C° 0 mm 5 mps 753 mmHg 64%
    14:00 +30°C° 0 mm 5 mps 753 mmHg 66%
    15:00 +29°C° 0 mm 5 mps 752 mmHg 66%
    16:00 +29°C° 0 mm 4 mps 752 mmHg 67%
    17:00 +29°C° 0 mm 4 mps 752 mmHg 67%
    18:00 +28°C° 0 mm 4 mps 752 mmHg 74%
    19:00 +27°C° 0 mm 3 mps 752 mmHg 80%
    20:00 +26°C° 0 mm 3 mps 752 mmHg 86%
    21:00 +26°C° 0 mm 3 mps 752 mmHg 84%
    22:00 +25°C° 0 mm 4 mps 752 mmHg 82%
    23:00 +25°C° 0 mm 4 mps 753 mmHg 80%

    Tomorrow, 20 June, Thursday

    Time Temperature Precipitation Wind Pressure Humidity
    00:00 +25°C° 0 mm 4 mps 752 mmHg 80%
    01:00 +25°C° 0 mm 4 mps 752 mmHg 80%
    02:00 +23°C° 0 mm 5 mps 752 mmHg 80%
    03:00 +23°C° 0 mm 5 mps 752 mmHg 77%
    04:00 +23°C° 0 mm 4 mps 752 mmHg 73%
    05:00 +23°C° 0 mm 4 mps 752 mmHg 70%
    06:00 +25°C° 0 mm 5 mps 752 mmHg 67%
    07:00 +27°C° 0 mm 5 mps 752 mmHg 63%
    08:00 +28°C° 0 mm 6 mps 752 mmHg 59%
    09:00 +29°C° 0 mm 6 mps 752 mmHg 58%
    10:00 +30°C° 0 mm 6 mps 752 mmHg 56%
    11:00 +30°C° 0 mm 6 mps 752 mmHg 54%
    12:00 +30°C° 0 mm 6 mps 752 mmHg 53%
    13:00 +32°C° 0 mm 6 mps 752 mmHg 52%
    14:00 +32°C° 0 mm 6 mps 751 mmHg 52%
    15:00 +30°C° 0 mm 6 mps 751 mmHg 53%
    16:00 +30°C° 0 mm 6 mps 751 mmHg 54%
    17:00 +29°C° 0 mm 5 mps 751 mmHg 56%
    18:00 +28°C° 0 mm 5 mps 751 mmHg 63%
    19:00 +27°C° 0 mm 4 mps 751 mmHg 69%
    20:00 +26°C° 0 mm 4 mps 752 mmHg 76%
    21:00 +25°C° 0 mm 4 mps 752 mmHg 74%
    22:00 +25°C° 0 mm 4 mps 752 mmHg 72%
    23:00 +25°C° 0 mm 4 mps 752 mmHg 70%

    Day after tomorrow, 21 June, Friday

    Time Temperature Precipitation Wind Pressure Humidity
    00:00 +24°C° 0 mm 3 mps 752 mmHg 70%
    01:00 +24°C° 0 mm 3 mps 752 mmHg 70%
    02:00 +24°C° 0 mm 3 mps 751 mmHg 70%
    03:00 +24°C° 0 mm 3 mps 751 mmHg 69%
    04:00 +23°C° 0 mm 4 mps 751 mmHg 68%
    05:00 +23°C° 0 mm 4 mps 752 mmHg 66%
    06:00 +25°C° 0 mm 4 mps 752 mmHg 63%
    07:00 +27°C° 0 mm 5 mps 752 mmHg 59%
    08:00 +28°C° 0 mm 5 mps 752 mmHg 56%
    09:00 +29°C° 0 mm 6 mps 752 mmHg 58%
    10:00 +29°C° 0 mm 6 mps 752 mmHg 59%
    11:00 +30°C° 0 mm 6 mps 752 mmHg 61%
    12:00 +30°C° 0 mm 5 mps 752 mmHg 61%
    13:00 +30°C° 0 mm 5 mps 752 mmHg 61%
    14:00 +30°C° 0 mm 5 mps 752 mmHg 60%
    15:00 +30°C° 0 mm 4 mps 751 mmHg 63%
    16:00 +30°C° 0 mm 4 mps 751 mmHg 65%
    17:00 +29°C° 0 mm 4 mps 751 mmHg 68%
    18:00 +28°C° 0 mm 3 mps 751 mmHg 72%
    19:00 +27°C° 0 mm 3 mps 751 mmHg 77%
    20:00 +26°C° 0 mm 3 mps 751 mmHg 81%
    21:00 +26°C° 0 mm 3 mps 752 mmHg 80%
    22:00 +26°C° 0 mm 3 mps 752 mmHg 79%
    23:00 +25°C° 0 mm 3 mps 752 mmHg 78%

    22 June, Saturday

    Time Temperature Precipitation Wind Pressure Humidity
    00:00 +25°C° 0 mm 3 mps 752 mmHg 78%
    01:00 +25°C° 0 mm 4 mps 752 mmHg 78%
    02:00 +25°C° 0 mm 4 mps 751 mmHg 77%
    03:00 +25°C° 0 mm 4 mps 752 mmHg 79%
    04:00 +23°C° 0 mm 4 mps 752 mmHg 80%
    05:00 +23°C° 0 mm 4 mps 752 mmHg 81%
    06:00 +26°C° 0 mm 5 mps 752 mmHg 75%
    07:00 +27°C° 0 mm 5 mps 752 mmHg 70%
    08:00 +29°C° 0 mm 5 mps 753 mmHg 65%
    09:00 +29°C° 0 mm 5 mps 753 mmHg 64%
    10:00 +30°C° 0 mm 5 mps 753 mmHg 63%
    11:00 +32°C° 0 mm 5 mps 752 mmHg 62%
    12:00 +32°C° 0 mm 5 mps 752 mmHg 63%
    13:00 +32°C° 0 mm 4 mps 752 mmHg 63%
    14:00 +32°C° 0 mm 4 mps 752 mmHg 63%
    15:00 +30°C° 0 mm 4 mps 752 mmHg 65%
    16:00 +30°C° 0 mm 3 mps 752 mmHg 66%
    17:00 +29°C° 0 mm 3 mps 751 mmHg 68%
    18:00 +28°C° 0 mm 2 mps 752 mmHg 72%
    19:00 +27°C° 0 mm 2 mps 752 mmHg 77%
    20:00 +26°C° 0 mm 2 mps 752 mmHg 82%
    21:00 +26°C° 0 mm 2 mps 752 mmHg 82%
    22:00 +26°C° 0 mm 2 mps 753 mmHg 82%
    23:00 +25°C° 0 mm 2 mps 753 mmHg 81%

    23 June, Sunday

    Time Temperature Precipitation Wind Pressure Humidity
    00:00 +25°C° 0 mm 1 mps 752 mmHg 80%
    01:00 +25°C° 0 mm 1 mps 752 mmHg 79%
    02:00 +24°C° 0 mm 1 mps 752 mmHg 78%
    03:00 +24°C° 0 mm 1 mps 752 mmHg 74%
    04:00 +24°C° 0 mm 1 mps 752 mmHg 71%
    05:00 +24°C° 0 mm 1 mps 752 mmHg 69%
    06:00 +26°C° 0 mm 2 mps 753 mmHg 64%
    07:00 +28°C° 0 mm 2 mps 753 mmHg 60%
    08:00 +30°C° 0 mm 3 mps 753 mmHg 55%
    09:00 +30°C° 0 mm 3 mps 753 mmHg 56%
    10:00 +31°C° 0 mm 3 mps 753 mmHg 57%
    11:00 +32°C° 0 mm 2 mps 753 mmHg 58%
    12:00 +32°C° 0 mm 2 mps 753 mmHg 58%
    13:00 +32°C° 0 mm 2 mps 752 mmHg 57%
    14:00 +32°C° 0 mm 2 mps 752 mmHg 57%
    15:00 +32°C° 0 mm 2 mps 752 mmHg 56%
    16:00 +32°C° 0 mm 2 mps 752 mmHg 56%
    17:00 +32°C° 0 mm 2 mps 751 mmHg 56%
    18:00 +31°C° 0 mm 2 mps 752 mmHg 62%
    19:00 +29°C° 0 mm 2 mps 752 mmHg 67%
    20:00 +28°C° 0 mm 1 mps 752 mmHg 72%
    21:00 +28°C° 0 mm 1 mps 752 mmHg 72%
    22:00 +28°C° 0 mm 2 mps 752 mmHg 73%
    23:00 +28°C° 0 mm 2 mps 752 mmHg 73%

    24 June, Monday

    Time Temperature Precipitation Wind Pressure Humidity
    00:00 +28°C° 0 mm 2 mps 752 mmHg 74%
    01:00 +27°C° 0 mm 2 mps 752 mmHg 75%
    02:00 +27°C° 0 mm 2 mps 752 mmHg 76%
    03:00 +27°C° 0 mm 1 mps 752 mmHg 73%
    04:00 +27°C° 0 mm 1 mps 752 mmHg 70%
    05:00 +27°C° 0 mm 1 mps 752 mmHg 67%
    06:00 +29°C° 0 mm 1 mps 752 mmHg 61%
    07:00 +31°C° 0 mm 1 mps 752 mmHg 55%
    08:00 +33°C° 0 mm 1 mps 752 mmHg 49%
    09:00 +33°C° 0 mm 1 mps 752 mmHg 47%
    10:00 +34°C° 0 mm 1 mps 752 mmHg 46%
    11:00 +36°C° 0 mm 2 mps 752 mmHg 44%
    12:00 +36°C° 0 mm 2 mps 751 mmHg 45%
    13:00 +36°C° 0 mm 2 mps 751 mmHg 46%
    14:00 +36°C° 0 mm 2 mps 751 mmHg 46%
    15:00 +36°C° 0 mm 2 mps 750 mmHg 47%
    16:00 +36°C° 0 mm 2 mps 750 mmHg 48%
    17:00 +35°C° 0 mm 2 mps 750 mmHg 48%
    18:00 +33°C° 0 mm 1 mps 750 mmHg 53%
    19:00 +32°C° 0 mm 1 mps 750 mmHg 58%
    20:00 +31°C° 0 mm 1 mps 751 mmHg 63%
    21:00 +30°C° 0 mm 1 mps 751 mmHg 64%
    22:00 +30°C° 0 mm 1 mps 751 mmHg 64%
    23:00 +30°C° 0 mm 1 mps 750 mmHg 65%
    Show more